TimeCST,TemperatureF,Dew PointF,Humidity,Sea Level PressureIn,VisibilityMPH,Wind Direction,Wind SpeedMPH,Gust SpeedMPH,PrecipitationIn,Events,Conditions,WindDirDegrees,DateUTC
12:14 AM,-0.4,-5.8,78,30.05,3.0,NNW,24.2,34.5,N/A,,Haze,330,2013-02-19 06:14:00
12:34 AM,-0.4,-5.8,78,30.06,3.0,NNW,24.2,31.1,N/A,,Haze,330,2013-02-19 06:34:00
12:53 AM,-0.4,-5.8,78,30.07,4.0,NW,21.9,29.9,N/A,,Haze,320,2013-02-19 06:53:00
1:13 AM,-0.4,-5.8,78,30.07,3.0,NW,25.3,31.1,N/A,,Haze,320,2013-02-19 07:13:00
1:33 AM,-0.4,-4.0,85,30.07,4.0,NW,24.2,-,N/A,,Overcast,320,2013-02-19 07:33:00
1:54 AM,1.4,-4.0,78,30.07,2.5,NNW,23.0,31.1,N/A,,Haze,330,2013-02-19 07:54:00
2:13 AM,1.4,-4.0,78,30.08,1.8,NNW,26.5,34.5,N/A,Snow,Light Snow,330,2013-02-19 08:13:00
2:34 AM,1.4,-4.0,78,30.09,1.2,NNW,25.3,33.4,N/A,Snow,Light Snow,330,2013-02-19 08:34:00
2:53 AM,-0.4,-5.8,78,30.09,1.8,NNW,25.3,34.5,N/A,Snow,Light Snow,330,2013-02-19 08:53:00
3:14 AM,-0.4,-5.8,78,30.10,1.8,NNW,24.2,36.8,N/A,Snow,Light Snow,330,2013-02-19 09:14:00
3:33 AM,-0.4,-5.8,78,30.10,1.8,NW,25.3,36.8,N/A,Snow,Light Snow,320,2013-02-19 09:33:00
3:53 AM,-0.4,-5.8,78,30.11,2.0,NW,29.9,34.5,N/A,,Haze,320,2013-02-19 09:53:00
4:14 AM,-0.4,-5.8,78,30.12,2.5,NW,28.8,33.4,N/A,,Haze,320,2013-02-19 10:14:00
4:33 AM,-2.2,-7.6,78,30.13,2.5,NW,28.8,36.8,N/A,,Haze,320,2013-02-19 10:33:00
4:54 AM,-2.2,-7.6,78,30.13,2.0,NW,28.8,32.2,N/A,,Haze,320,2013-02-19 10:54:00
5:14 AM,-4.0,-9.4,78,30.15,1.2,NNW,25.3,36.8,N/A,Snow,Light Snow,330,2013-02-19 11:14:00
5:33 AM,-5.8,-9.4,84,30.16,1.8,NW,25.3,35.7,N/A,,Haze,320,2013-02-19 11:33:00
5:53 AM,-5.8,-11.2,77,30.17,2.0,NW,25.3,34.5,N/A,,Haze,320,2013-02-19 11:53:00
6:13 AM,-5.8,-11.2,77,30.18,3.0,NW,26.5,31.1,N/A,,Haze,320,2013-02-19 12:13:00
6:33 AM,-5.8,-11.2,77,30.18,3.0,NW,26.5,33.4,N/A,,Haze,320,2013-02-19 12:33:00
6:53 AM,-5.8,-11.2,77,30.19,2.0,NW,27.6,32.2,N/A,,Haze,320,2013-02-19 12:53:00
7:14 AM,-5.8,-11.2,77,30.20,2.0,NNW,24.2,35.7,N/A,Snow,Light Snow,330,2013-02-19 13:14:00
7:33 AM,-5.8,-11.2,77,30.22,1.5,NW,26.5,33.4,N/A,,Haze,320,2013-02-19 13:33:00
7:53 AM,-7.6,-11.2,84,30.23,1.2,NW,29.9,34.5,N/A,,Haze,320,2013-02-19 13:53:00
8:13 AM,-7.6,-13.0,77,30.24,1.5,NW,26.5,33.4,N/A,,Haze,320,2013-02-19 14:13:00
8:33 AM,-7.6,-14.8,71,30.25,2.0,NW,25.3,29.9,N/A,,Haze,320,2013-02-19 14:33:00
8:53 AM,-7.6,-14.8,71,30.25,1.8,NW,23.0,33.4,N/A,,Haze,320,2013-02-19 14:53:00
9:13 AM,-7.6,-14.8,71,30.26,1.5,NNW,25.3,29.9,N/A,,Haze,330,2013-02-19 15:13:00
9:34 AM,-7.6,-14.8,71,30.27,1.5,NNW,24.2,33.4,N/A,,Haze,330,2013-02-19 15:34:00
9:53 AM,-7.6,-14.8,71,30.27,1.5,NNW,21.9,33.4,N/A,,Haze,330,2013-02-19 15:53:00
10:13 AM,-5.8,-14.8,65,30.28,1.2,NW,25.3,34.5,N/A,,Haze,320,2013-02-19 16:13:00
10:33 AM,-5.8,-13.0,71,30.29,1.5,NW,27.6,33.4,N/A,,Haze,320,2013-02-19 16:33:00
11:14 AM,-5.8,-13.0,71,30.30,2.0,NW,26.5,29.9,N/A,,Haze,320,2013-02-19 17:14:00
11:33 AM,-5.8,-13.0,71,30.31,1.2,NW,25.3,31.1,N/A,,Haze,320,2013-02-19 17:33:00
11:54 AM,-5.8,-13.0,71,30.31,2.0,NW,25.3,32.2,N/A,,Haze,320,2013-02-19 17:54:00
12:33 PM,-4.0,-11.2,71,30.31,1.8,NW,24.2,28.8,N/A,,Haze,320,2013-02-19 18:33:00
12:53 PM,-4.0,-11.2,71,30.31,1.8,NW,23.0,-,N/A,,Haze,320,2013-02-19 18:53:00
1:13 PM,-4.0,-11.2,71,30.31,1.8,NNW,24.2,28.8,N/A,,Haze,330,2013-02-19 19:13:00
1:33 PM,-2.2,-11.2,66,30.31,2.0,NW,24.2,31.1,N/A,,Haze,320,2013-02-19 19:33:00
1:53 PM,-4.0,-11.2,71,30.31,2.5,NW,24.2,-,N/A,,Haze,320,2013-02-19 19:53:00
2:14 PM,-2.2,-11.2,66,30.31,3.0,NW,24.2,-,N/A,,Haze,320,2013-02-19 20:14:00
2:33 PM,-2.2,-11.2,66,30.31,4.0,NW,19.6,-,N/A,,Haze,310,2013-02-19 20:33:00
2:53 PM,-2.2,-9.4,71,30.32,3.0,NW,24.2,-,N/A,,Haze,310,2013-02-19 20:53:00
3:13 PM,-2.2,-9.4,71,30.33,4.0,NW,20.7,26.5,N/A,,Haze,310,2013-02-19 21:13:00
3:33 PM,-2.2,-9.4,71,30.34,3.0,NW,23.0,27.6,N/A,,Haze,310,2013-02-19 21:33:00
3:54 PM,-2.2,-9.4,71,30.34,7.0,NW,20.7,25.3,N/A,,Overcast,320,2013-02-19 21:54:00
4:13 PM,-2.2,-9.4,71,30.34,5.0,NW,21.9,26.5,N/A,,Haze,320,2013-02-19 22:13:00
4:33 PM,-2.2,-9.4,71,30.35,7.0,NW,20.7,-,N/A,,Overcast,320,2013-02-19 22:33:00
4:54 PM,-2.2,-9.4,71,30.37,10.0,NNW,11.5,15.0,N/A,,Overcast,330,2013-02-19 22:54:00
5:13 PM,-4.0,-11.2,71,30.37,10.0,NW,16.1,-,N/A,,Overcast,320,2013-02-19 23:13:00
5:33 PM,-5.8,-11.2,77,30.37,10.0,NW,16.1,-,N/A,,Mostly Cloudy,320,2013-02-19 23:33:00
6:33 PM,-5.8,-13.0,71,30.36,10.0,NNW,17.3,21.9,N/A,,Scattered Clouds,330,2013-02-20 00:33:00
6:53 PM,-5.8,-13.0,71,30.38,10.0,NNW,11.5,20.7,N/A,,Overcast,330,2013-02-20 00:53:00
7:13 PM,-7.6,-13.0,77,30.38,10.0,NW,11.5,-,N/A,,Overcast,320,2013-02-20 01:13:00
7:53 PM,-7.6,-13.0,77,30.39,10.0,NNW,8.1,-,N/A,,Overcast,330,2013-02-20 01:53:00
8:13 PM,-7.6,-14.8,71,30.39,10.0,NNW,12.7,-,N/A,,Overcast,330,2013-02-20 02:13:00
8:33 PM,-7.6,-14.8,71,30.39,10.0,NNW,17.3,-,N/A,,Overcast,330,2013-02-20 02:33:00
8:54 PM,-9.4,-14.8,77,30.40,10.0,NNW,12.7,-,N/A,,Scattered Clouds,330,2013-02-20 02:54:00
9:13 PM,-9.4,-14.8,77,30.41,10.0,NNW,10.4,-,N/A,,Clear,330,2013-02-20 03:13:00
9:34 PM,-9.4,-14.8,77,30.41,10.0,NNW,9.2,-,N/A,,Clear,330,2013-02-20 03:34:00
9:53 PM,-9.4,-14.8,77,30.42,10.0,NNW,12.7,-,N/A,,Clear,330,2013-02-20 03:53:00
10:13 PM,-9.4,-16.6,71,30.43,10.0,NW,10.4,-,N/A,,Clear,320,2013-02-20 04:13:00
10:33 PM,-9.4,-16.6,71,30.43,10.0,NW,8.1,-,N/A,,Clear,320,2013-02-20 04:33:00
10:53 PM,-9.4,-16.6,71,30.43,10.0,NNW,10.4,-,N/A,,Clear,340,2013-02-20 04:53:00
11:13 PM,-11.2,-16.6,77,30.44,10.0,NW,8.1,-,N/A,,Clear,320,2013-02-20 05:13:00
11:33 PM,-11.2,-16.6,77,30.44,10.0,NW,10.4,-,N/A,,Clear,320,2013-02-20 05:33:00
11:53 PM,-11.2,-16.6,77,30.44,10.0,NNW,5.8,-,N/A,,Clear,330,2013-02-20 05:53:00